Regional Weather Roundup
Issued by NWS

Home | Current Version | Previous Version | Graphics & Text | Print | Product List | Glossary On
Versions: 1 2 3 4 5 6 7 8 9 10 11 12 13 14 15 16 17 18 19 20 21 22 23 24 25 26 27 28 29 30 31 32 33 34 35 36 37 38 39 40 41 42 43 44 45 46 47 48 49 50
000
ASUS45 KABQ 271001
RWRNM
NEW MEXICO REGIONAL WEATHER ROUNDUP
NATIONAL WEATHER SERVICE ALBUQUERQUE NM
400 AM MDT TUE SEP 27 2016

NOTE: "FAIR" MEANS FEW OR NO CLOUDS BELOW 12,000 FEET AGL WITH NO
       SIGNIFICANT WEATHER OR OBSTRUCTIONS TO VISION.

      THIS PRODUCT IS RELEASED AS TWO VERSIONS.  ONE VERSION NEAR
      THE TOP OF THE HOUR CONTAINING PRELIMINARY DATA FROM ALBUQUERQUE
      AND OTHER STATIONS.  A FINAL VERSION WITH ADDITIONAL DATA IS
      ISSUED ABOUT 10 MINUTES AFTER THE HOUR.

NMZ501-503-504-510>518-271100-
NORTHWEST PLATEAU/NORTHCENTRAL MOUNTAINS

CITY           SKY/WX    TMP DP  RH WIND       PRES   REMARKS
FARMINGTON     FAIR      49  37  63 E8        30.30F
LOS ALAMOS     FAIR      49  30  48 CALM      30.41F
SANTA FE       FAIR      40  33  76 N7        30.37F
TAOS           FAIR      36  27  69 N5        30.42S WCI  32
ANGEL FIRE     FAIR      27  25  92 CALM      30.48F

$$
NMZ402-403-502-505>509-271100-
WESTCENTRAL MOUNTAINS/SOUTHWEST MOUNTAINS

CITY           SKY/WX    TMP DP  RH WIND       PRES   REMARKS
GALLUP         FAIR      46  27  47 NW3       30.33F
SILVER CITY    CLOUDY    51  47  89 SE6       30.29F

$$
NMZ407-409-411-412-271100-
SOUTHERN DESERTS

CITY           SKY/WX    TMP DP  RH WIND       PRES   REMARKS
DEMING         CLOUDY    53  51  93 E8        30.27F
LAS CRUCES     CLOUDY    52  51  96 CALM      30.28F
HOLLOMAN AFB   FAIR      53  53 100 E3        30.25F
ALAMOGORDO     FAIR      52  52 100 N5          N/A
T OR C         CLOUDY    54  51  90 CALM      30.29F

$$
NMZ519>523-271100-
CENTRAL VALLEYS/CENTRAL HIGHLANDS

CITY           SKY/WX    TMP DP  RH WIND       PRES   REMARKS
ALBUQUERQUE    MOCLDY    56  34  43 N8        30.32F
DOUBLE EAGLE   FAIR      46  34  64 N5        30.35F
MORIARTY ARPT  FAIR      38  32  79 N3        30.38F
CLINES CORNERS MOCLDY    47  33  58 NW6       30.40F
BELEN          MOCLDY    57  39  51 CALM      30.32S
SOCORRO        CLOUDY    54  47  79 S5        30.29F

$$
NMZ524>526-539-540-271100-
SOUTHCENTRAL MOUNTAINS

CITY           SKY/WX    TMP DP  RH WIND       PRES   REMARKS
RUIDOSO        MOCLDY    48  39  71 SW5       30.38F

$$
NMZ527>531-271100-
NORTHEAST HIGHLANDS/NORTHEAST PLAINS

CITY           SKY/WX    TMP DP  RH WIND       PRES   REMARKS
LAS VEGAS      FAIR      37  30  75 E6        30.38F WCI  32
RATON          FAIR      39  33  79 NE3       30.35S
CLAYTON        FAIR      50  37  61 W13       30.27F

$$
NMZ532>537-271100-
EASTCENTRAL PLAINS

CITY           SKY/WX    TMP DP  RH WIND       PRES   REMARKS
TUCUMCARI      FAIR      48  36  63 W6        30.27F
CANNON AFB     NOT AVBL
CLOVIS AIRPORT FAIR      48  39  71 NW5       30.27F

$$
NMZ028-029-538-271100-
SOUTHEAST PLAINS

CITY           SKY/WX    TMP DP  RH WIND       PRES   REMARKS
ROSWELL        CLOUDY    55  50  83 CALM      30.26F
ARTESIA        FAIR      55  52  88 SE7       30.27F
CARLSBAD       CLOUDY    55  53  93 S3        30.25F
HOBBS          FAIR      55  55 100 CALM      30.28F


$$



USA.gov is the U.S. government's official web portal to all federal, state and local government web resources and services.